Tracking 28799 objects as of 18-Apr-2024
HD Live streaming from Space Station
objects crossing your sky now

OPS 6393 (FLTSATCOM 3)

Track OPS 6393 (FLTSATCOM 3) now!
OPS 6393 (FLTSATCOM 3) is classified as:


NORAD ID: 11669
Int'l Code: 1980-004A
Perigee: 35,667.1 km
Apogee: 35,861.8 km
Inclination: 7.8 °
Period: 1,434.6 minutes
Semi major axis: 42135 km
RCS: 3.9811 m2 (large)
Launch date: January 18, 1980
Source: United States (US)
Launch site: AIR FORCE EASTERN TEST RANGE (AFETR)
Your satellite tracking list
Your tracking list is empty




NASA's NSSDC Master Catalog

Two Line Element Set (TLE):
1 11669U 80004A   24108.58740674 -.00000259  00000-0  00000-0 0  9998
2 11669   7.8183 310.5350 0023105 219.3519 166.4687  1.00376311161930
Source of the keplerian elements: AFSPC